User: anonymous   Login
Location: Red Deer
(52.2681°N, 113.8112°W)
Time: 00:59:52
(UTC-06:00)
Language:

Envisat - Orbit

View from above orbital plane
View from above orbital plane
View from above satellite
View from above satellite

Ground track
Ground track

The orbit data is extracted from the following two-line orbital elements,

1 27386U 02009A   24141.88915168  .00000452  00000-0  16154-3 0  9996
2 27386  98.2806 103.9294 0001194  89.5754 283.5305 14.38574663164657
Epoch (UTC): 20 May 2024 21:20:22
Eccentricity: 0.0001194
inclination: 98.2806°
perigee height: 762 km
apogee height: 764 km
right ascension of ascending node: 103.9294°
argument of perigee: 89.5754°
revolutions per day: 14.38574663
mean anomaly at epoch: 283.5305°
orbit number at epoch: 16465

The dashed part of the orbit path shows where the satellite is in the earth's shadow,  

DLR